Content
SEND FEEDBACK

Daily
Averages
Monthly
Summary
United States of America

GARDEN CITY, GEORGIA


Home > North America > United States > Georgia
Elevation: 49 feet     Latitude: 32 01N     Longitude: 081 12W

WEATHER
 
SELECT A DAY
Number of Records: 203,248;   Date Range: 1/1/95 - 10/20/14
 
SHARE

PRINT THIS DATA

[ ← Previous Day ]
WEATHER ALMANAC - JANUARY 23, 2013
[ Next Day → ]
[ °C ]   °F
Weather ElementAverageHighLow
Temperature44.8 °F57.9 °F (2:53 pm)30.9 °F (7:53 am)
Dewpoint26 °F34 °F (11:53 pm)19 °F (9:53 am)
Humidity50.5 %72 % (7:53 am)29 % (11:53 am)
Barometer30.32 in30.42 in (10:53 am)30.23 in (11:53 pm)
Wind Speed5.7 mph11.5 mph (12:53 pm)
Wind Gust19.6 mph (3:53 pm)
Weather ElementAverage
Visibility9.8 mi
Wind DirectionWSW (260.9 °)

Weather ElementTotal
Precipitation---
Heating Degree Days20.6 (Base 65)
Averaged from 23 records on January 23, 2013
WEATHER CONDITIONS BREAKOUT
WIND DIRECTION BREAKOUT
WEATHER BY HOUR - JANUARY 23, 2013
[ °C ]   °F
Local TimeTemperatureDewpointHumidityBarometerVisibilityWind DirectionWind SpeedGust SpeedPrecipitationEventsConditions
1:53 AM35.1 °F25.0 °F67 %30.31 in10.0 miWNW (300°)3.5 mphClear
2:53 AM35.1 °F24.1 °F64 %30.32 in10.0 miWNW (300°)3.5 mphClear
3:53 AM33.1 °F24.1 °F70 %30.33 in10.0 miWNW (290°)3.5 mphClear
4:53 AM33.1 °F23.0 °F66 %30.33 in10.0 miWest (270°)3.5 mphClear
5:53 AM34.0 °F21.9 °F61 %30.34 in10.0 miWest (260°)3.5 mphClear
6:53 AM33.1 °F21.9 °F64 %30.37 in10.0 miCalmClear
7:53 AM30.9 °F23.0 °F72 %30.39 in10.0 miWest (270°)3.5 mphClear
8:53 AM37.9 °F21.0 °F51 %30.40 in10.0 miNW (320°)4.6 mphClear
9:53 AM44.1 °F19.0 °F37 %30.41 in10.0 miNNW (340°)5.8 mphClear
10:53 AM48.0 °F19.0 °F32 %30.42 in10.0 miWNW (290°)8.1 mphClear
11:53 AM51.1 °F19.9 °F29 %30.38 in10.0 miWNW (290°)8.1 mphClear
12:53 PM55.0 °F23.0 °F29 %30.33 in10.0 miWNW (290°)11.5 mph17.3 mphClear
1:53 PM55.9 °F25.0 °F30 %30.31 in10.0 miWNW (300°)9.2 mphClear
2:53 PM57.9 °F28.0 °F32 %30.27 in10.0 miWNW (300°)11.5 mphClear
3:53 PM57.9 °F28.0 °F32 %30.26 in10.0 miWNW (290°)9.2 mph19.6 mphClear
4:53 PM57.0 °F28.9 °F34 %30.27 in10.0 miWest (270°)9.2 mphClear
5:53 PM51.1 °F30.9 °F46 %30.27 in10.0 miWest (270°)5.8 mphClear
6:53 PM50.0 °F30.0 °F46 %30.27 in10.0 miSW (230°)3.5 mphClear
7:53 PM46.0 °F30.9 °F56 %30.27 in10.0 miSSW (210°)3.5 mphClear
8:53 PM46.0 °F32.0 °F58 %30.27 in10.0 miSW (220°)5.8 mphClear
9:53 PM46.0 °F33.1 °F61 %30.26 in10.0 miSW (230°)4.6 mphClear
10:53 PM46.0 °F33.1 °F61 %30.26 in8.0 miWSW (240°)3.5 mphClear
11:53 PM46.0 °F34.0 °F63 %30.23 in8.0 miSW (220°)6.9 mphClear
Hourly data recorded from KSAV, located miles away from Garden City, Georgia







STORIES FROM OUR PARTNERS